Clinton, AR

8:26 AM CST on December 06, 2016 (GMT -0600)
Clinton

Weather History for KCCA - April, 2014

Change the Weather History Date:

Tuesday, April 8, 2014

  Actual Average (KBVX) Record (KBVX)
Temperature  
Mean Temperature 50 °F -  
Max Temperature 62 °F 70 °F 86 °F (1978)
Min Temperature 39 °F 46 °F 24 °F (2007)
Degree Days  
Heating Degree Days 14    
Moisture  
Dew Point 41 °F    
Average Humidity 75    
Maximum Humidity 100    
Minimum Humidity 39    
Precipitation  
Precipitation 0.02 in - - ()
Sea Level Pressure  
Sea Level Pressure 29.92 in    
Wind  
Wind Speed 4 mph (NW)    
Max Wind Speed 22 mph    
Max Gust Speed 33 mph    
Visibility 6 miles    
Events Rain , Thunderstorm    
Averages and records for this station are not official NWS values.
T = Trace of Precipitation, MM = Missing Value Source: NWS Daily Summary

Daily Weather History Graph

Daily Weather History Graph

Search for Another Location

Airport or City:

Trip Planner

Search our weather history database for the weather conditions in past years. The results will help you decide how hot, cold, wet, or windy it might be!

Date:

Astronomy

Apr. 08, 2014 Rise Set
Actual Time 6:46 AM CDT 7:37 PM CDT
Civil Twilight 6:20 AM CDT 8:03 PM CDT
Nautical Twilight 5:49 AM CDT 8:33 PM CDT
Astronomical Twilight 5:18 AM CDT 9:05 PM CDT
Moon 1:42 PM CDT (4/8) 2:47 AM CDT (4/8)
Length of Visible Light 13h 42m
Length of Day
12h 50m
Waxing Gibbous, 63% of the Moon is Illuminated
Apr 8
Waxing Gibbous
Apr 15
Full
Apr 22
Last Quarter
Apr 29
New
May 6
First Quarter

Hourly Weather History & Observations

Time (CDT) Temp. Dew Point Humidity Pressure Visibility Wind Dir Wind Speed Gust Speed Precip Events Conditions
12:15 AM 44.6 °F 42.8 °F 93% 29.86 in 4.0 mi Calm Calm - N/A   Clear
12:35 AM 42.8 °F 42.8 °F 100% 29.86 in 3.0 mi Calm Calm - N/A   Clear
12:55 AM 42.8 °F 42.8 °F 100% 29.86 in 3.0 mi Calm Calm - N/A   Clear
1:15 AM 42.8 °F 41.0 °F 93% 29.85 in 3.0 mi Calm Calm - N/A   Clear
1:35 AM 42.8 °F 41.0 °F 93% 29.85 in 3.0 mi Calm Calm - N/A   Clear
1:55 AM 41.0 °F 41.0 °F 100% 29.85 in 3.0 mi Calm Calm - N/A   Clear
2:15 AM 41.0 °F 39.2 °F 93% 29.85 in 3.0 mi Calm Calm - N/A   Clear
2:35 AM 41.0 °F 39.2 °F 93% 29.84 in 3.0 mi Calm Calm - N/A   Clear
2:55 AM 41.0 °F 39.2 °F 93% 29.85 in 3.0 mi Calm Calm - N/A   Clear
3:15 AM 41.0 °F 39.2 °F 93% 29.84 in 3.0 mi Calm Calm - N/A   Clear
3:35 AM 41.0 °F 41.0 °F 100% 29.84 in 3.0 mi Calm Calm - N/A   Clear
3:55 AM 42.8 °F 42.8 °F 100% 29.84 in 3.0 mi Calm Calm - N/A   Mostly Cloudy
4:15 AM 42.8 °F 42.8 °F 100% 29.83 in 3.0 mi Calm Calm - N/A   Overcast
4:35 AM 42.8 °F 42.8 °F 100% 29.83 in 3.0 mi Calm Calm - N/A   Scattered Clouds
4:55 AM 42.8 °F 42.8 °F 100% 29.83 in 3.0 mi Calm Calm - N/A   Partly Cloudy
5:15 AM 42.8 °F 42.8 °F 100% 29.84 in 4.0 mi Calm Calm - N/A   Scattered Clouds
5:35 AM 42.8 °F 42.8 °F 100% 29.84 in 3.0 mi Calm Calm - N/A   Scattered Clouds
5:55 AM 42.8 °F 42.8 °F 100% 29.84 in 3.0 mi Calm Calm - N/A   Scattered Clouds
6:15 AM 42.8 °F 42.8 °F 100% 29.85 in 3.0 mi Calm Calm - N/A   Mostly Cloudy
6:35 AM 42.8 °F 42.8 °F 100% 29.85 in 3.0 mi Calm Calm - N/A   Overcast
6:55 AM 44.6 °F 42.8 °F 93% 29.85 in 3.0 mi Calm Calm - N/A   Overcast
7:15 AM 44.6 °F 42.8 °F 93% 29.86 in 4.0 mi Calm Calm - N/A   Mostly Cloudy
7:35 AM 44.6 °F 44.6 °F 100% 29.86 in 4.0 mi Calm Calm - N/A   Scattered Clouds
7:55 AM 50.0 °F 46.4 °F 87% 29.87 in 4.0 mi NW 9.2 mph - N/A   Mostly Cloudy
8:15 AM 51.8 °F 46.4 °F 82% 29.87 in 7.0 mi NW 3.5 mph - N/A   Mostly Cloudy
8:35 AM 53.6 °F 46.4 °F 77% 29.87 in 7.0 mi NW 4.6 mph - N/A   Partly Cloudy
8:55 AM 53.6 °F 46.4 °F 77% 29.87 in 5.0 mi WNW 6.9 mph - N/A   Haze
9:15 AM 55.4 °F 46.4 °F 72% 29.87 in 5.0 mi WNW 8.1 mph - N/A   Haze
9:35 AM 57.2 °F 44.6 °F 63% 29.87 in 6.0 mi NW 6.9 mph - N/A   Haze
9:55 AM 57.2 °F 44.6 °F 63% 29.88 in 6.0 mi NNW 8.1 mph 17.3 mph N/A   Haze
10:15 AM 59.0 °F 44.6 °F 59% 29.89 in 6.0 mi WNW 12.7 mph 19.6 mph N/A   Haze
10:35 AM 60.8 °F 44.6 °F 55% 29.90 in 6.0 mi NW 10.4 mph 26.5 mph N/A   Haze
10:55 AM 57.2 °F 42.8 °F 59% 29.91 in 7.0 mi WNW 16.1 mph 29.9 mph N/A   Partly Cloudy
11:15 AM 59.0 °F 42.8 °F 55% 29.91 in 7.0 mi WNW 12.7 mph 23.0 mph N/A   Partly Cloudy
11:35 AM 59.0 °F 42.8 °F 55% 29.91 in 7.0 mi WNW 10.4 mph - N/A   Scattered Clouds
11:55 AM 59.0 °F 42.8 °F 55% 29.91 in 7.0 mi WNW 10.4 mph 16.1 mph N/A   Partly Cloudy
12:15 PM 59.0 °F 42.8 °F 55% 29.90 in 8.0 mi WNW 10.4 mph - N/A Thunderstorm Clear
12:35 PM 60.8 °F 42.8 °F 52% 29.89 in 7.0 mi West 11.5 mph 16.1 mph N/A Thunderstorm Clear
12:55 PM 62.6 °F 42.8 °F 48% 29.88 in 8.0 mi WNW 16.1 mph 21.9 mph N/A Thunderstorm Partly Cloudy
1:15 PM 62.6 °F 41.0 °F 45% 29.88 in 7.0 mi NNW 12.7 mph 19.6 mph N/A   Mostly Cloudy
1:35 PM 53.6 °F 41.0 °F 62% 29.90 in 8.0 mi NNW 6.9 mph 17.3 mph 0.02 in Rain Light Rain
1:55 PM 53.6 °F 42.8 °F 67% 29.91 in 5.0 mi NW 10.4 mph 21.9 mph 0.02 in Rain Light Rain
2:15 PM 55.4 °F 37.4 °F 51% 29.90 in 6.0 mi NNW 11.5 mph 25.3 mph N/A   Haze
2:35 PM 60.8 °F 44.6 °F 55% 29.89 in 8.0 mi West 8.1 mph 16.1 mph N/A   Partly Cloudy
2:55 PM 57.2 °F 41.0 °F 55% 29.91 in 7.0 mi WNW 21.9 mph 33.4 mph N/A   Scattered Clouds
3:15 PM 55.4 °F 42.8 °F 63% 29.91 in 5.0 mi WNW 17.3 mph 25.3 mph N/A   Haze
3:35 PM 57.2 °F 39.2 °F 51% 29.91 in 8.0 mi WNW 17.3 mph 29.9 mph N/A   Clear
3:55 PM 57.2 °F 37.4 °F 48% 29.92 in 8.0 mi NW 17.3 mph 32.2 mph N/A   Clear
4:15 PM 57.2 °F 37.4 °F 48% 29.92 in 8.0 mi NW 15.0 mph 26.5 mph N/A   Partly Cloudy
4:35 PM 59.0 °F 35.6 °F 42% 29.93 in 8.0 mi NNW 9.2 mph 18.4 mph N/A Thunderstorm Partly Cloudy
4:55 PM 60.8 °F 35.6 °F 39% 29.94 in 7.0 mi NW 13.8 mph 21.9 mph N/A   Clear
5:15 PM 59.0 °F 35.6 °F 42% 29.95 in 7.0 mi NW 12.7 mph 26.5 mph N/A   Clear
5:35 PM 59.0 °F 33.8 °F 39% 29.96 in 8.0 mi NNW 6.9 mph - N/A   Clear
5:55 PM 60.8 °F 37.4 °F 42% 29.96 in 8.0 mi NE 4.6 mph - N/A   Partly Cloudy
6:15 PM 59.0 °F 39.2 °F 48% 29.97 in 6.0 mi NNW 4.6 mph - N/A   Haze
6:35 PM 59.0 °F 39.2 °F 48% 29.99 in 8.0 mi North 10.4 mph 18.4 mph N/A   Mostly Cloudy
6:55 PM 55.4 °F 39.2 °F 54% 30.01 in 8.0 mi NNW 10.4 mph 17.3 mph N/A   Mostly Cloudy
7:15 PM 55.4 °F 39.2 °F 54% 30.01 in 8.0 mi NNW 3.5 mph - N/A   Clear
7:35 PM 53.6 °F 39.2 °F 58% 30.02 in 10.0 mi NNW 3.5 mph - N/A   Clear
7:55 PM 51.8 °F 39.2 °F 62% 30.03 in 9.0 mi Calm Calm - N/A   Clear
8:15 PM 50.0 °F 41.0 °F 71% 30.04 in 9.0 mi WNW 3.5 mph - N/A   Clear
8:35 PM 48.2 °F 41.0 °F 76% 30.05 in 10.0 mi Calm Calm - N/A   Clear
8:55 PM 46.4 °F 42.8 °F 87% 30.06 in 10.0 mi Calm Calm - N/A   Clear
9:15 PM 44.6 °F 39.2 °F 81% 30.07 in 10.0 mi Calm Calm - N/A   Clear
9:35 PM 42.8 °F 41.0 °F 93% 30.08 in 10.0 mi Calm Calm - N/A   Clear
9:55 PM 42.8 °F 39.2 °F 87% 30.09 in 9.0 mi Calm Calm - N/A   Clear
10:15 PM 42.8 °F 39.2 °F 87% 30.10 in 9.0 mi Calm Calm - N/A   Clear
10:35 PM 41.0 °F 39.2 °F 93% 30.10 in 9.0 mi Calm Calm - N/A   Clear
10:55 PM 39.2 °F 39.2 °F 100% 30.11 in 8.0 mi Calm Calm - N/A   Clear
11:15 PM 39.2 °F 37.4 °F 93% 30.12 in 8.0 mi Calm Calm - N/A   Clear
11:35 PM 39.2 °F 37.4 °F 93% 30.12 in 8.0 mi Calm Calm - N/A   Clear
11:55 PM 39.2 °F 37.4 °F 93% 30.13 in 7.0 mi Calm Calm - N/A   Clear